sat.trackr.live / text

‹ back to catalog

STARLINK-31166

NORAD 58789 · 2024-012C

PAYLOAD ACTIVE UNKNOWN

§ Identity

Operator
Country
US
Launch date
2024-01-15
Launch site
AFETR
Launch vehicle
Mass (kg)
RCS (m²)

Purposes: comms

External: N2YO · Heavens-Above · Gunter

§ Orbital elements

Epoch: 2026-09-20T09:13:10.080480Z

Period
94.27 min
Inclination
43.0043°
Eccentricity
0.0001207
Mean motion
15.27589142 rev/d
Perigee alt
482.2 km
Apogee alt
483.8 km
Semi-major
6,861.2 km
B*
-5.1712e-5
RAAN
145.5712°
Arg perigee
286.8565°
Mean anomaly
73.2154°
Rev number
15,101

§ Raw data

STARLINK-311661 58789U 24012C   26263.38414445 -.00001685  00000+0 -51712-4 0  99992 58789  43.0043 145.5712 0001207 286.8565  73.2154 15.27589142151012

JSON: /api/v1/satellites/58789 · /tle

For live sub-satellite position, see the globe view (requires WebGL).

§ Visibility from observer

Set your observer location to see the next 7 days of passes ≥ 10°. The values pass through the URL so the page stays shareable.

No JS? Fill the form by hand. The geolocation button needs JavaScript.